Change the Weather History Date:

Friday, December 13, 2013

  Actual Average Record
Temperature  
Mean Temperature 12 °F -  
Max Temperature 14 °F 28 °F 50 °F (1998)
Min Temperature 10 °F 13 °F -16 °F (2000)
Degree Days  
Heating Degree Days 53    
Moisture  
Dew Point 7 °F    
Average Humidity 81    
Maximum Humidity 86    
Minimum Humidity 73    
Precipitation  
Precipitation 0.00 in - - ()
Sea Level Pressure  
Sea Level Pressure 30.18 in    
Wind  
Wind Speed 7 mph (NNE)    
Max Wind Speed 14 mph    
Max Gust Speed -    
Visibility 9 miles    
Events Snow    
Averages and records for this station are not official NWS values.
T = Trace of Precipitation, MM = Missing Value Source: NWS Daily Summary

Daily Weather History Graph

Daily Weather History Graph

Search for Another Location

Airport or City:

Trip Planner

Search our weather history database for the weather conditions in past years. The results will help you decide how hot, cold, wet, or windy it might be!

Date:

Astronomy

Dec. 13, 2013 Rise Set
Actual Time 7:27 AM CST 4:18 PM CST
Civil Twilight 6:54 AM CST 4:51 PM CST
Nautical Twilight 6:17 AM CST 5:28 PM CST
Astronomical Twilight 5:41 AM CST 6:04 PM CST
Moon 2:06 PM CST (12/13) 3:44 AM CST (12/13)
Length of Visible Light 9h 57m
Length of Day
8h 50m
Waxing Gibbous, 88% of the Moon is Illuminated
Dec 13
Waxing Gibbous
Dec 17
Full
Dec 25
Last Quarter
Jan 1
New
Jan 7
First Quarter

Hourly Weather History & Observations

Time (CST) Temp. Windchill Dew Point Humidity Pressure Visibility Wind Dir Wind Speed Gust Speed Precip Events Conditions
12:15 AM 14.0 °F 6.5 °F 10.4 °F 86% 30.11 in 10.0 mi WNW 4.6 mph - N/A   Overcast
12:35 AM 14.0 °F 5.1 °F 10.4 °F 86% 30.10 in 10.0 mi NW 5.8 mph - N/A   Overcast
12:55 AM 14.0 °F 6.5 °F 10.4 °F 86% 30.10 in 10.0 mi NW 4.6 mph - N/A   Overcast
1:15 AM 14.0 °F 8.2 °F 10.4 °F 86% 30.11 in 10.0 mi NW 3.5 mph - N/A   Overcast
1:35 AM 14.0 °F 6.5 °F 10.4 °F 86% 30.11 in 10.0 mi NW 4.6 mph - N/A   Overcast
1:55 AM 14.0 °F 6.5 °F 10.4 °F 86% 30.11 in 10.0 mi NW 4.6 mph - N/A   Overcast
2:15 AM 14.0 °F - 8.6 °F 79% 30.11 in 10.0 mi Calm Calm - N/A   Overcast
2:35 AM 14.0 °F 6.5 °F 8.6 °F 79% 30.12 in 10.0 mi NNW 4.6 mph - N/A   Overcast
2:55 AM 14.0 °F 6.5 °F 8.6 °F 79% 30.13 in 10.0 mi NNW 4.6 mph - N/A   Overcast
3:15 AM 12.2 °F 0.7 °F 8.6 °F 85% 30.12 in 7.0 mi North 8.1 mph - N/A   Mostly Cloudy
3:35 AM 12.2 °F 2.9 °F 8.6 °F 85% 30.12 in 10.0 mi North 5.8 mph - N/A   Scattered Clouds
3:55 AM 12.2 °F 2.9 °F 8.6 °F 85% 30.12 in 7.0 mi North 5.8 mph - N/A Snow Light Snow
4:15 AM 12.2 °F 4.3 °F 8.6 °F 85% 30.12 in 10.0 mi North 4.6 mph - N/A   Mostly Cloudy
4:35 AM 12.2 °F 1.7 °F 8.6 °F 85% 30.11 in 10.0 mi North 6.9 mph - N/A Snow Light Snow
5:45 AM 10.4 °F 0.8 °F 6.8 °F 85% 30.13 in 10.0 mi North 5.8 mph - N/A   Overcast
6:45 AM 10.4 °F -3.3 °F 6.8 °F 85% 30.15 in 10.0 mi NNE 10.4 mph - N/A Snow Light Snow
7:45 AM 10.4 °F -0.4 °F 6.8 °F 85% 30.15 in 10.0 mi ENE 6.9 mph - N/A   Mostly Cloudy
8:45 AM 10.4 °F -1.5 °F 6.8 °F 85% 30.17 in 10.0 mi ENE 8.1 mph - N/A   Mostly Cloudy
9:45 AM 12.2 °F -0.2 °F 6.8 °F 79% 30.19 in 10.0 mi ENE 9.2 mph - N/A   Mostly Cloudy
10:45 AM 12.2 °F -0.2 °F 6.8 °F 79% 30.20 in 10.0 mi ENE 9.2 mph - N/A   Overcast
11:45 AM 12.2 °F 0.7 °F 6.8 °F 79% 30.18 in 10.0 mi ENE 8.1 mph - N/A   Overcast
12:45 PM 12.2 °F 1.7 °F 6.8 °F 79% 30.18 in 10.0 mi ENE 6.9 mph - N/A   Overcast
1:45 PM 12.2 °F 1.7 °F 6.8 °F 79% 30.18 in 10.0 mi ENE 6.9 mph - N/A   Overcast
2:45 PM 12.2 °F -1.0 °F 6.8 °F 79% 30.18 in 10.0 mi ENE 10.4 mph - N/A   Overcast
3:45 PM 12.2 °F -1.0 °F 6.8 °F 79% 30.20 in 10.0 mi ENE 10.4 mph - N/A   Overcast
4:45 PM 10.4 °F -3.3 °F 3.2 °F 73% 30.21 in 10.0 mi NE 10.4 mph - N/A   Mostly Cloudy
5:50 PM 10.4 °F -4.1 °F 3.2 °F 73% 30.23 in 10.0 mi ENE 11.5 mph - N/A   Overcast
6:45 PM 10.4 °F -4.8 °F 3.2 °F 73% 30.24 in 10.0 mi ENE 12.7 mph - N/A   Overcast
7:45 PM 10.4 °F -5.4 °F 3.2 °F 73% 30.25 in 10.0 mi ENE 13.8 mph - N/A   Overcast
8:45 PM 10.4 °F -3.3 °F 3.2 °F 73% 30.25 in 7.0 mi ENE 10.4 mph - N/A Snow Light Snow
9:15 PM 10.4 °F -5.4 °F 3.2 °F 73% 30.26 in 10.0 mi ENE 13.8 mph - N/A   Mostly Cloudy
9:35 PM 10.4 °F -3.3 °F 5.0 °F 79% 30.26 in 10.0 mi ENE 10.4 mph - N/A Snow Light Snow
9:50 PM 10.4 °F -3.3 °F 3.2 °F 73% 30.26 in 7.0 mi ENE 10.4 mph - N/A Snow Light Snow
9:55 PM 10.4 °F -3.3 °F 5.0 °F 79% 30.26 in 10.0 mi ENE 10.4 mph - N/A   Overcast
10:15 PM 10.4 °F -3.3 °F 5.0 °F 79% 30.26 in 10.0 mi NE 10.4 mph - N/A Snow Light Snow
10:35 PM 10.4 °F -4.1 °F 5.0 °F 79% 30.25 in 5.0 mi NE 11.5 mph - N/A Snow Light Snow
10:55 PM 10.4 °F -2.4 °F 6.8 °F 85% 30.25 in 7.0 mi NE 9.2 mph - N/A Snow Light Snow
11:15 PM 10.4 °F -4.1 °F 6.8 °F 85% 30.25 in 5.0 mi ENE 11.5 mph - N/A Snow Light Snow
11:35 PM 10.4 °F -3.3 °F 6.8 °F 85% 30.25 in 4.0 mi NE 10.4 mph - N/A Snow Light Snow
11:55 PM 10.4 °F -2.4 °F 6.8 °F 85% 30.25 in 4.0 mi NE 9.2 mph - N/A Snow Light Snow